FW9473 Weather Reports


time (UTC)temp
F
wind
direction
speed
knots
gust
knots
rain 1hr
in
rain 24hr
in
rain mn
in
humidity
%
barometer
mb
20260506091550 65 245 1.7 9.6 0.00 0.00 0.00 76 1016.2
20260506090051 65 138 1.7 7.0 0.00 0.00 0.00 76 1016.2
20260506084601 65 232 1.7 4.3 0.00 0.00 0.00 76 1016.4
20260506083048 65 182 1.7 6.1 0.00 0.00 0.00 75 1016.6
20260506081553 65 236 0.9 7.8 0.00 0.00 0.00 75 1016.9
20260506073100 65 0 0.0 3.5 0.00 0.00 0.00 74 1016.8
20260506071552 65 174 0.0 3.5 0.00 0.00 0.00 73 1016.8
20260506061600 65 0 0.0 2.6 0.00 0.00 0.00 70 1016.9
20260506050108 64 0 0.0 0.0 0.00 0.00 0.00 72 1017.0
20260506044554 64 0 0.0 0.0 0.00 0.00 0.00 70 1017.0
20260506043100 66 0 0.0 1.7 0.00 0.00 0.00 67 1016.7
20260506041607 66 181 0.0 1.7 0.00 0.00 0.00 66 1016.9
20260506040104 67 0 0.0 1.7 0.00 0.00 0.00 65 1016.9
20260506034556 65 223 0.0 1.7 0.00 0.00 0.00 67 1016.8
20260506033052 66 0 0.0 0.0 0.00 0.00 0.00 68 1016.7
20260506031553 65 0 0.0 0.9 0.00 0.00 0.00 68 1016.8
20260506030057 67 0 0.0 0.9 0.00 0.00 0.00 65 1017.1
20260506024557 67 0 0.0 1.7 0.00 0.00 0.00 64 1017.1
20260506023044 68 218 0.0 2.6 0.00 0.00 0.00 64 1016.9
20260506021601 68 0 0.0 1.7 0.00 0.00 0.00 63 1016.7
20260506020048 68 0 0.0 0.0 0.00 0.00 0.00 63 1016.5
20260506014601 70 0 0.0 2.6 0.00 0.00 0.00 60 1016.5
20260506013059 70 0 0.0 0.0 0.00 0.00 0.00 60 1016.4
20260506011603 71 0 0.0 0.0 0.00 0.00 0.00 58 1016.7
20260506010056 71 0 0.0 0.0 0.00 0.00 0.00 57 1016.6
20260506004554 71 0 0.0 0.9 0.00 0.00 0.00 57 1016.6
20260506003056 72 0 0.0 0.9 0.00 0.00 0.00 55 1016.5
20260506001554 73 0 0.0 0.0 0.00 0.00 0.00 55 1016.5
20260506000048 74 0 0.0 1.7 0.00 0.00 0.00 53 1016.4
20260505234546 75 0 0.0 3.5 0.00 0.00 0.00 48 1016.3
20260505233048 76 0 0.0 7.0 0.00 0.00 0.00 48 1016.4
20260505231602 76 240 2.6 8.7 0.00 0.00 0.00 46 1016.0
20260505230052 78 351 1.7 8.7 0.00 0.00 0.00 44 1016.3
20260505224551 78 128 2.6 13.0 0.00 0.00 0.00 43 1016.2
20260505223103 79 229 3.5 9.6 0.00 0.00 0.00 39 1016.3
20260505221558 79 158 2.6 9.6 0.00 0.00 0.00 39 1015.9
20260505220052 79 290 2.6 8.7 0.00 0.00 0.00 39 1016.0
20260505214612 80 218 3.5 9.6 0.00 0.00 0.00 39 1016.2
20260505213051 80 0 3.5 10.4 0.00 0.00 0.00 37 1016.2
20260505211551 80 248 3.5 12.2 0.00 0.00 0.00 39 1016.6
20260505210046 80 217 2.6 10.4 0.00 0.00 0.00 39 1016.5
20260505204549 80 0 0.9 10.4 0.00 0.00 0.00 39 1016.6
20260505203052 80 244 6.1 13.9 0.00 0.00 0.00 38 1016.7
20260505201551 79 258 2.6 11.3 0.00 0.00 0.00 39 1017.0
20260505200057 79 129 3.5 10.4 0.00 0.00 0.00 39 1017.0
20260505194549 79 43 2.6 13.9 0.00 0.00 0.00 38 1017.3
20260505193046 79 245 4.3 13.9 0.00 0.00 0.00 39 1017.5
20260505191547 80 129 3.5 11.3 0.00 0.00 0.00 39 1018.1
20260505190049 79 0 2.6 10.4 0.00 0.00 0.00 39 1018.1
20260505184554 79 236 5.2 12.2 0.00 0.00 0.00 40 1018.3
20260505183059 78 211 4.3 10.4 0.00 0.00 0.00 41 1018.3
20260505181552 78 151 2.6 13.0 0.00 0.00 0.00 42 1018.5
20260505180056 78 265 2.6 9.6 0.00 0.00 0.00 41 1018.7
20260505174559 77 0 3.5 13.9 0.00 0.00 0.00 41 1019.2
20260505173054 77 218 3.5 11.3 0.00 0.00 0.00 39 1019.3
20260505171551 76 221 5.2 13.0 0.00 0.00 0.00 40 1019.6
20260505170057 76 224 5.2 13.0 0.00 0.00 0.00 41 1019.3
20260505164543 76 218 3.5 12.2 0.00 0.00 0.00 45 1019.3
20260505163055 75 0 0.0 9.6 0.00 0.00 0.00 48 1019.4
20260505161604 74 0 0.0 7.0 0.00 0.00 0.00 53 1019.7
20260505153059 70 0 2.6 7.8 0.00 0.00 0.00 60 1020.1
20260505151604 69 138 0.0 4.3 0.00 0.00 0.00 64 1020.2
20260505140110 64 0 0.0 3.5 0.00 0.00 0.00 70 1020.0
20260505124557 58 0 0.0 0.0 0.00 0.00 0.00 82 1019.5
20260505123100 56 0 0.0 0.0 0.00 0.00 0.00 84 1019.7
20260505121601 56 0 0.0 0.0 0.00 0.00 0.00 84 1019.4
20260505120057 53 0 0.0 0.0 0.00 0.00 0.00 87 1019.4
20260505114605 51 0 0.0 0.0 0.00 0.00 0.00 88 1019.2
20260505113113 50 0 0.0 0.0 0.00 0.00 0.00 90 1019.1
20260505111549 49 0 0.0 0.0 0.00 0.00 0.00 90 1018.8
20260505101553 48 0 0.0 0.0 0.00 0.00 0.00 89 1018.7
20260505100052 49 0 0.0 0.0 0.00 0.00 0.00 88 1018.4
20260505094551 50 0 0.0 0.0 0.00 0.00 0.00 87 1018.4
20260505093057 50 0 0.0 0.0 0.00 0.00 0.00 85 1018.5